Lapse_Rate
7.4 7.3 7.2 7.0 7.0 6.8 6.8 6.6 6.5 6.4 6.3 6.1 6.0 6.0 6.0 6.0 6.0 6.2 6.3 6.5 6.5 6.5 6.4 6.4 6.3 6.2 6.0 5.9 5.9 5.8 5.8 5.8 5.9 5.8 5.7 5.7 5.8 5.7 5.8 5.7 5.6 5.6 5.7
7.6 7.4 7.2 7.1 7.1 7.0 6.8 6.8 6.7 6.6 6.6 6.6 6.5 6.4 6.5 6.4 6.5 6.4 6.4 6.4 6.5 6.4 6.4 6.3 6.3 6.3 6.2 6.2 6.1 6.0 5.9 5.9 5.9 5.9 5.9 5.9 5.9 5.9 5.9 6.1 5.9 5.8 5.8
7.4 7.3 7.2 7.2 7.0 7.0 6.9 6.9 6.9 6.8 6.8 6.8 6.7 6.8 6.8 6.7 6.6 6.5 6.5 6.4 6.5 6.6 6.4 6.3 6.3 6.3 6.2 6.2 6.3 6.3 6.2 6.3 6.3 6.2 6.2 6.2 6.1 6.1 6.1 6.1 6.2 6.1 6.0
7.2 7.1 7.1 7.2 7.1 7.0 7.0 7.0 6.9 6.8 6.9 6.8 6.6 6.6 6.6 6.6 6.5 6.7 6.6 6.6 6.6 6.7 6.5 6.5 6.6 6.6 6.6 6.5 6.4 6.4 6.4 6.4 6.4 6.3 6.3 6.4 6.3 6.3 6.3 6.5 6.3 6.4 6.2
7.2 7.2 7.1 7.2 7.2 7.1 7.0 7.0 7.0 6.9 6.9 6.8 6.8 6.7 6.5 6.6 6.5 6.4 6.4 6.5 6.5 6.3 6.3 6.4 6.5 6.5 6.6 6.6 6.6 6.4 6.5 6.5 6.6 6.6 6.5 6.4 6.3 6.2 6.2 6.2 6.3 6.3 6.4
7.3 7.2 7.2 7.2 7.2 7.1 7.0 7.0 7.0 6.9 6.9 6.7 6.9 6.9 6.7 6.7 6.6 6.6 6.6 6.5 6.5 6.6 6.5 6.5 6.5 6.5 6.6 6.7 6.6 6.7 6.6 6.7 6.6 6.6 6.6 6.6 6.5 6.3 6.2 6.4 6.4 6.4 6.4
7.3 7.2 7.2 7.1 7.0 7.0 6.9 6.8 6.8 6.8 6.9 6.8 6.7 6.8 6.8 6.7 6.7 6.7 6.7 6.7 6.7 6.7 6.6 6.7 6.8 6.7 6.7 6.7 6.6 6.7 6.8 6.8 6.7 6.6 6.6 6.7 6.6 6.5 6.5 6.4 6.3 6.4 6.4
7.1 7.1 7.1 7.1 7.0 6.9 6.7 6.7 6.7 6.6 6.7 6.7 6.7 6.6 6.6 6.6 6.5 6.5 6.6 6.7 6.7 6.7 6.7 6.8 6.9 6.9 6.8 6.8 6.8 6.7 6.7 6.8 6.8 6.7 6.7 6.7 6.7 6.7 6.7 6.4 6.4 6.4 6.5
7.1 7.0 7.0 7.0 7.0 6.9 6.8 6.6 6.6 6.5 6.5 6.4 6.4 6.3 6.3 6.3 6.3 6.5 6.5 6.5 6.6 6.6 6.6 6.6 6.7 6.7 6.7 6.7 6.6 6.6 6.6 6.8 6.7 6.7 6.6 6.7 6.7 6.8 6.8 6.6 6.5 6.5 6.5
7.0 6.9 6.9 6.9 6.9 6.8 6.8 6.7 6.6 6.5 6.5 6.5 6.3 6.2 6.1 6.1 6.1 6.2 6.3 6.4 6.4 6.3 6.3 6.3 6.3 6.3 6.5 6.5 6.6 6.6 6.6 6.6 6.7 6.6 6.6 6.7 6.7 6.7 6.8 6.8 6.5 6.5 6.6
7.1 7.0 6.9 6.8 6.8 6.8 6.7 6.6 6.6 6.6 6.4 6.4 6.2 6.0 6.0 6.0 6.0 6.0 6.0 6.0 6.0 6.1 6.1 6.2 6.2 6.2 6.2 6.2 6.2 6.3 6.4 6.4 6.5 6.6 6.5 6.6 6.6 6.8 6.7 6.7 6.8 6.6 6.6
7.1 6.9 7.0 6.9 6.8 6.9 6.8 6.7 6.6 6.6 6.5 6.4 6.3 6.1 6.1 6.0 5.9 5.8 5.8 5.8 5.8 5.8 5.7 5.8 5.8 5.9 5.9 5.9 6.0 6.0 6.1 6.3 6.4 6.5 6.6 6.6 6.6 6.7 6.7 6.6 6.5 6.6 6.7
7.4 7.4 7.1 7.0 6.8 6.8 6.8 6.8 6.8 6.6 6.4 6.3 6.3 6.2 6.1 6.0 5.9 5.7 5.6 5.5 5.5 5.5 5.6 5.6 5.7 5.7 5.7 5.7 5.8 6.0 6.0 6.1 6.2 6.4 6.4 6.4 6.5 6.5 6.6 6.7 6.6 6.6 6.7
7.9 7.8 7.5 7.2 7.0 6.9 6.7 6.8 6.6 6.6 6.5 6.4 6.1 6.1 6.0 5.9 5.8 5.6 5.5 5.4 5.5 5.5 5.4 5.4 5.5 5.5 5.5 5.6 5.7 5.7 5.8 5.9 6.1 6.3 6.3 6.3 6.2 6.3 6.4 6.6 6.6 6.7 6.6
8.0 7.8 7.6 7.2 7.1 6.9 6.6 6.7 6.6 6.6 6.6 6.3 6.2 6.1 5.9 5.8 5.7 5.7 5.7 5.5 5.5 5.4 5.3 5.3 5.2 5.2 5.1 5.2 5.4 5.5 5.5 5.6 5.8 5.9 6.1 6.0 6.2 6.2 6.4 6.6 6.7 6.7 6.7
7.8 7.8 7.4 7.2 7.2 6.9 6.8 6.7 6.5 6.4 6.5 6.3 6.3 6.1 5.9 5.9 5.8 5.7 5.7 5.5 5.4 5.3 5.2 5.1 5.1 5.1 5.0 5.1 5.1 5.4 5.4 5.5 5.5 5.5 5.7 5.8 5.8 6.0 6.2 6.3 6.4 6.6 6.6
7.8 7.6 7.5 7.2 6.9 6.9 7.0 6.8 6.8 6.6 6.4 6.3 6.3 6.1 6.0 5.9 5.9 5.7 5.7 5.6 5.4 5.4 5.3 5.3 5.2 5.2 5.1 5.0 5.0 5.3 5.3 5.5 5.6 5.7 5.7 5.6 5.7 6.0 6.1 6.2 6.3 6.4 6.5
7.8 7.6 7.3 7.0 6.8 6.7 6.7 6.6 6.6 6.5 6.4 6.2 6.1 6.2 6.1 6.0 6.0 6.0 5.9 5.6 5.5 5.4 5.4 5.4 5.3 5.2 5.0 5.0 5.0 5.1 5.1 5.2 5.3 5.4 5.4 5.4 5.5 5.5 5.7 5.8 6.0 6.1 6.3
7.8 7.5 7.3 7.0 6.7 6.4 6.3 6.5 6.5 6.4 6.4 6.5 6.3 6.3 6.3 6.1 6.0 5.9 5.7 5.6 5.5 5.4 5.5 5.5 5.4 5.1 5.0 4.9 4.9 5.0 5.1 5.0 5.1 5.0 5.2 5.3 5.4 5.4 5.5 5.5 5.7 6.0 6.2
7.6 7.7 7.6 7.4 7.0 6.6 6.3 6.5 6.6 6.6 6.7 6.9 6.7 6.3 6.0 6.0 5.8 5.8 5.7 5.6 5.5 5.5 5.4 5.4 5.3 5.1 5.0 5.0 4.9 4.9 4.9 4.8 4.9 4.9 5.0 5.1 5.3 5.3 5.5 5.7 5.8 6.0 6.3
7.7 7.6 7.5 7.4 7.3 7.0 6.8 6.8 6.8 6.9 6.8 6.7 6.7 6.3 6.0 5.9 5.7 5.8 5.7 5.5 5.4 5.4 5.2 5.3 5.1 4.9 4.8 4.7 4.7 4.6 4.7 4.8 4.8 5.0 5.2 5.1 5.1 5.0 5.1 5.3 5.6 5.7 5.9
7.9 8.0 7.8 7.5 7.3 7.3 7.2 6.9 6.7 6.5 6.5 6.4 6.3 6.1 5.9 5.7 5.7 5.6 5.4 5.4 5.4 5.4 5.4 5.3 5.1 4.9 4.7 4.6 4.6 4.5 4.5 4.5 4.5 4.6 4.6 4.7 4.7 4.9 5.1 5.2 5.4 5.6 5.9
7.4 7.3 7.6 7.7 7.6 7.5 7.3 6.9 6.7 6.6 6.7 6.7 7.0 6.9 6.5 5.7 5.5 5.4 5.4 5.5 5.6 5.6 5.4 5.3 5.1 4.8 4.7 4.7 4.6 4.5 4.5 4.6 4.5 4.5 4.6 4.6 4.5 4.6 4.9 5.3 5.6 5.8 6.0
7.8 7.8 7.6 7.6 7.6 7.6 7.6 7.4 7.3 7.0 6.6 6.7 6.5 6.1 5.9 5.9 5.8 5.8 5.9 5.8 5.6 5.4 5.4 5.2 5.0 4.9 4.7 4.6 4.6 4.6 4.4 4.4 4.5 4.5 4.3 4.3 4.3 4.5 4.7 4.9 5.2 5.6 5.8
7.9 7.6 7.6 8.0 7.7 7.7 7.4 7.4 7.4 7.4 7.0 6.9 6.5 6.2 6.0 5.8 5.9 6.0 5.9 5.8 5.7 5.6 5.4 5.4 5.2 4.8 4.8 4.5 4.4 4.4 4.3 4.4 4.6 4.7 4.6 4.1 4.0 4.1 4.5 4.7 5.0 5.1 5.3
7.6 7.5 7.4 7.6 7.6 7.4 7.3 7.4 7.2 7.3 7.4 7.1 6.7 6.5 6.5 6.4 6.3 6.3 6.2 6.0 5.9 5.8 5.9 5.7 5.3 5.2 5.0 4.8 4.7 4.5 4.5 4.6 4.7 4.9 5.0 4.9 4.6 4.2 4.2 4.5 4.7 4.9 5.1
Wind_Speed
5 13 16 18 16 16 17 14 12 11 9 9 10 9 8 8 8 7 6 3 3 6 10 12 11 13 14 11 11 12 14 16 16 16 15 15 14 10 5 7 7 7 8
7 14 16 18 19 18 18 17 15 13 13 12 12 11 8 7 8 10 9 7 9 10 11 13 13 13 13 13 14 14 15 15 15 16 16 15 15 15 9 9 7 6 11
10 15 15 14 17 17 17 17 17 16 16 13 11 11 10 11 8 6 7 8 10 12 12 13 10 10 11 10 11 11 12 11 13 14 15 16 14 15 8 9 10 12 13
12 15 15 15 13 13 16 16 16 17 15 14 13 11 11 10 11 9 6 5 6 9 9 8 9 9 10 10 11 10 11 12 13 13 14 14 13 13 13 7 8 9 10
8 14 15 14 14 12 15 15 14 16 18 14 10 10 11 10 9 9 9 9 8 8 8 8 9 9 9 10 11 11 12 13 13 13 12 12 11 11 11 12 5 7 9
7 14 15 14 15 14 11 13 11 12 13 13 12 13 12 11 11 10 8 9 10 9 9 9 9 10 11 11 11 13 13 13 14 14 13 12 11 10 11 10 13 3 6
6 10 13 15 16 17 17 16 15 15 15 15 14 13 13 12 10 9 8 9 9 10 9 10 11 11 12 11 11 12 13 13 14 13 13 15 14 10 10 11 14 18 7
8 10 12 14 14 15 18 19 18 17 16 16 15 14 13 12 10 10 10 10 10 10 10 11 11 11 11 11 12 12 13 13 13 13 13 13 12 11 11 12 12 14 14
7 8 11 13 15 15 16 17 17 18 18 18 17 16 14 13 12 11 11 12 12 12 12 11 11 10 10 11 11 12 12 13 13 13 12 14 12 10 9 10 11 11 11
6 7 8 11 15 14 14 16 15 17 16 16 15 14 14 12 12 12 11 13 13 13 13 12 11 10 10 10 11 11 11 11 13 12 13 13 12 11 10 10 10 10 10
5 7 8 10 13 15 14 17 17 19 17 17 16 16 15 12 11 11 10 14 14 14 13 12 11 11 10 10 10 10 10 11 11 11 11 11 11 11 10 9 10 9 9
11 11 8 7 10 14 13 16 16 18 19 17 17 17 16 14 13 11 9 12 12 13 12 12 11 10 8 8 8 8 9 9 10 9 11 12 11 10 9 8 9 8 8
16 9 12 9 11 11 9 13 14 16 17 18 20 20 17 14 12 11 11 10 11 10 10 10 9 9 8 7 7 8 9 10 10 10 10 11 11 9 7 7 8 8 9
13 14 11 10 8 11 11 10 12 11 15 14 18 21 17 12 12 12 12 11 10 9 9 8 9 8 8 7 7 7 8 8 9 9 8 10 10 9 8 7 8 9 9
13 14 13 12 12 10 8 9 10 10 12 15 18 21 20 14 8 13 12 11 10 10 10 8 8 7 6 6 5 6 7 7 9 8 9 10 11 10 10 9 8 8 8
15 16 14 17 16 14 13 10 9 12 13 15 16 18 21 17 13 11 10 10 9 10 8 8 6 6 4 4 5 6 6 7 8 9 10 12 12 12 11 10 9 9 9
17 14 18 18 16 16 17 10 11 12 13 11 14 20 21 20 17 14 9 7 10 9 9 9 6 5 4 3 2 4 5 6 6 9 14 14 12 14 15 13 12 12 10
14 18 16 15 18 18 17 12 10 14 15 13 14 17 21 21 21 15 8 7 13 12 11 6 3 2 2 2 1 3 5 6 7 10 14 17 18 19 17 19 17 14 12
17 15 16 18 19 20 15 11 10 12 11 13 14 15 19 21 21 14 10 12 16 11 7 4 2 2 1 1 2 3 4 4 7 9 12 16 18 19 19 17 17 15 13
13 16 15 15 17 17 11 8 5 5 6 11 12 14 18 17 20 16 12 13 15 6 4 3 3 3 2 0 2 4 4 4 7 7 8 12 16 17 18 18 17 16 15
8 10 15 14 15 13 11 12 8 12 9 7 9 17 19 17 18 15 10 11 12 7 6 5 4 4 1 1 2 3 4 3 5 5 7 9 12 14 17 17 18 17 16
11 13 12 15 15 15 12 11 4 9 6 8 6 11 17 17 18 16 12 9 9 6 7 6 5 3 2 2 3 2 2 2 2 2 2 3 6 10 12 14 15 16 15
10 12 14 16 16 15 12 7 4 5 4 3 4 6 9 19 20 18 17 12 8 7 8 7 6 6 4 2 3 4 2 3 1 2 1 1 4 4 8 9 10 10 10
11 8 9 9 12 14 17 14 15 9 9 9 11 9 10 18 17 19 18 15 11 6 6 6 5 4 5 4 2 2 4 4 3 1 1 2 3 2 3 7 5 5 7
6 8 8 11 12 12 16 17 15 14 9 4 4 9 10 9 14 16 16 13 9 6 6 8 7 6 4 4 4 3 2 3 3 2 3 3 2 1 3 7 6 5 6
5 2 7 10 11 10 12 13 16 15 8 9 8 9 8 7 8 10 15 13 13 9 9 8 7 7 6 4 3 4 4 4 3 3 2 3 2 2 2 2 2 5 11
Wind_Direction
233 182 175 174 175 177 174 172 171 168 165 155 159 145 126 116 123 127 124 136 145 119 99 86 72 58 56 53 56 51 46 35 27 19 20 19 19 18 66 66 59 33 23
148 178 176 177 180 181 180 176 177 177 176 164 159 150 149 145 130 108 82 78 100 100 87 79 64 58 51 41 42 35 36 29 24 16 20 20 15 18 62 57 43 47 43
153 172 168 166 181 182 181 174 178 188 173 166 156 149 144 125 101 83 90 82 86 88 80 74 70 56 57 57 49 37 32 23 30 23 21 19 13 13 43 63 49 35 29
157 166 171 166 164 175 180 175 180 176 164 149 135 130 122 118 125 111 117 109 103 95 94 99 92 85 73 66 61 50 37 28 26 29 24 18 12 6 13 38 49 49 36
153 164 170 167 172 177 167 167 181 172 158 144 143 166 167 165 155 153 149 136 129 118 113 104 94 84 79 74 68 53 46 39 37 38 28 22 15 358 359 5 27 38 35
158 165 169 169 179 177 178 170 174 168 161 167 177 187 174 165 158 155 142 131 124 124 115 101 93 88 83 77 67 67 58 51 48 44 40 31 22 10 12 16 14 341 33
156 169 173 175 183 188 189 184 184 183 177 182 183 173 165 160 155 146 141 131 126 118 107 98 90 85 81 75 68 60 58 55 52 49 36 32 18 31 26 17 26 30 20
156 169 178 180 190 187 195 194 189 188 182 179 178 171 167 161 158 154 144 133 123 114 107 97 92 87 79 75 73 66 58 55 52 46 33 27 25 33 34 29 24 25 24
160 165 179 180 179 183 191 184 187 182 179 178 174 173 168 165 162 152 146 138 130 122 111 100 92 85 79 72 68 63 60 58 55 48 32 22 21 28 26 25 20 19 16
176 183 186 183 179 182 186 181 185 175 173 174 172 165 159 157 153 149 151 142 137 131 123 115 109 103 88 75 65 59 53 52 52 48 36 22 21 20 17 16 11 11 10
223 204 190 185 184 184 182 181 181 174 173 171 165 154 147 148 144 151 157 148 144 138 129 120 114 106 95 81 72 60 53 47 45 40 33 24 22 20 16 14 11 10 11
214 212 202 192 186 181 181 182 178 172 171 166 157 152 155 160 161 158 145 144 140 134 128 120 111 101 94 86 69 61 56 53 46 37 25 15 22 17 10 11 9 7 12
210 203 201 195 186 180 183 179 175 173 168 168 165 166 166 164 159 150 131 123 127 127 121 118 107 92 87 77 65 57 48 45 34 28 18 15 13 14 17 9 15 9 17
201 208 198 192 187 192 181 184 179 171 172 172 174 173 167 166 165 160 157 159 157 153 133 129 123 118 107 91 72 61 52 42 35 23 26 26 25 23 26 28 28 23 17
215 207 199 189 195 192 188 183 182 187 183 181 178 182 179 171 167 164 166 168 167 161 155 145 138 125 112 101 81 67 51 35 28 35 31 22 33 34 37 36 41 35 32
217 208 193 198 195 187 196 191 194 189 184 180 183 186 188 180 167 169 166 174 173 169 155 147 138 119 95 79 56 45 43 36 39 43 43 36 39 42 37 36 39 38 38
216 204 201 196 193 195 197 194 192 189 180 185 189 189 189 186 177 171 166 167 175 166 151 147 127 122 113 127 99 62 48 32 56 65 54 49 53 45 49 47 41 37 39
207 203 194 192 193 198 199 192 191 186 187 191 187 185 190 189 183 169 161 169 169 167 165 153 140 121 110 79 26 30 43 53 58 71 61 58 62 57 53 50 44 43 41
210 203 198 190 193 196 197 190 189 183 190 190 182 184 188 188 183 170 167 167 169 165 169 155 115 131 117 38 33 40 40 48 60 57 63 70 61 59 45 30 32 32 27
208 203 197 192 194 187 181 171 159 166 186 169 185 188 185 187 180 169 165 164 166 157 166 161 138 64 109 47 54 69 58 71 67 61 84 67 59 46 35 36 35 35 34
202 195 197 187 188 172 175 175 181 198 187 192 190 189 188 183 178 173 166 162 167 174 175 164 127 142 55 17 106 54 44 79 50 47 76 57 50 40 34 38 25 24 24
209 201 191 193 182 185 186 188 176 188 198 197 181 184 183 175 176 175 173 177 175 163 168 176 159 143 130 35 130 101 61 359 39 52 91 79 46 46 37 26 22 17 22
223 201 198 193 184 182 175 158 83 87 68 125 172 184 187 182 181 180 179 177 177 175 182 183 170 166 145 54 66 139 109 214 354 316 308 78 51 39 33 18 18 24 32
242 203 185 177 181 181 170 173 180 188 185 203 196 194 191 188 182 180 180 179 179 177 172 178 173 175 135 154 112 63 70 134 168 313 315 311 351 53 7 347 358 35 57
228 193 183 164 171 184 188 184 184 193 191 148 149 170 180 185 185 182 179 174 176 178 175 172 172 176 180 150 150 154 90 51 64 125 229 319 4 311 328 322 335 19 56
358 180 158 166 166 173 187 194 198 197 155 152 162 172 175 178 180 185 181 183 183 178 176 181 178 174 181 158 155 162 161 163 180 156 172 234 242 288 296 329 17 60 78